When you browse on this site, cookies collect data to enhance your experience and personalize the content and advertising you see.
Visit our Privacy Policy to learn more. By continuing to use the site, you agree to this use of cookies and data.
  • En España
  • Lista de países
  • Para 7 días
  • Temperatura del agua
  • Mapa Satelital
  • El tiempo en el mapa
  • Informadores
  • user-avatar
    Iniciar sesión

    Tiempo cada hora Vortihovo

    Hoy, 18 Julio, Jueves

    Tiempo Temperatura Precipitaciones Viento Presión Humedad
    00:00 +13°C° 0.1 mm 1 mps 734 mmHg 88%
    01:00 +13°C° 0.1 mm 2 mps 734 mmHg 90%
    02:00 +12°C° 0 mm 2 mps 734 mmHg 94%
    03:00 +12°C° 0.4 mm 2 mps 734 mmHg 95%
    04:00 +13°C° 0.4 mm 1 mps 734 mmHg 96%
    05:00 +13°C° 0.4 mm 1 mps 734 mmHg 98%
    06:00 +13°C° 0.8 mm 2 mps 734 mmHg 97%
    07:00 +14°C° 0.8 mm 2 mps 734 mmHg 97%
    08:00 +14°C° 0.8 mm 2 mps 734 mmHg 96%
    09:00 +13°C° 0.5 mm 3 mps 734 mmHg 96%
    10:00 +13°C° 0.5 mm 3 mps 734 mmHg 96%
    11:00 +13°C° 0.5 mm 4 mps 734 mmHg 95%
    12:00 +13°C° 0.4 mm 4 mps 734 mmHg 95%
    13:00 +13°C° 0.4 mm 4 mps 734 mmHg 94%
    14:00 +13°C° 0.4 mm 5 mps 734 mmHg 94%
    15:00 +13°C° 0.3 mm 5 mps 734 mmHg 95%
    16:00 +13°C° 0.3 mm 4 mps 734 mmHg 96%
    17:00 +13°C° 0.3 mm 4 mps 734 mmHg 96%
    18:00 +13°C° 0.2 mm 4 mps 734 mmHg 96%
    19:00 +13°C° 0.2 mm 4 mps 734 mmHg 97%
    20:00 +13°C° 0.2 mm 4 mps 734 mmHg 97%
    21:00 +13°C° 0.6 mm 4 mps 734 mmHg 97%
    22:00 +13°C° 0.6 mm 4 mps 734 mmHg 98%
    23:00 +13°C° 0.6 mm 4 mps 734 mmHg 98%

    Mañana, 19 Julio, Viernes

    Tiempo Temperatura Precipitaciones Viento Presión Humedad
    00:00 +13°C° 0.9 mm 4 mps 734 mmHg 98%
    01:00 +13°C° 0.9 mm 4 mps 734 mmHg 98%
    02:00 +13°C° 0.9 mm 4 mps 734 mmHg 97%
    03:00 +13°C° 0.5 mm 4 mps 734 mmHg 97%
    04:00 +13°C° 0.5 mm 5 mps 735 mmHg 97%
    05:00 +13°C° 0.5 mm 5 mps 735 mmHg 97%
    06:00 +13°C° 0.7 mm 5 mps 735 mmHg 97%
    07:00 +13°C° 0.7 mm 5 mps 735 mmHg 96%
    08:00 +14°C° 0.7 mm 5 mps 736 mmHg 96%
    09:00 +14°C° 0.3 mm 5 mps 736 mmHg 95%
    10:00 +14°C° 0.3 mm 6 mps 737 mmHg 95%
    11:00 +14°C° 0.3 mm 6 mps 737 mmHg 94%
    12:00 +15°C° 0.1 mm 6 mps 737 mmHg 91%
    13:00 +16°C° 0.1 mm 6 mps 737 mmHg 88%
    14:00 +16°C° 0.1 mm 6 mps 738 mmHg 85%
    15:00 +17°C° 0 mm 6 mps 738 mmHg 82%
    16:00 +17°C° 0 mm 6 mps 738 mmHg 79%
    17:00 +17°C° 0 mm 6 mps 739 mmHg 76%
    18:00 +16°C° 0 mm 5 mps 739 mmHg 81%
    19:00 +15°C° 0 mm 4 mps 739 mmHg 85%
    20:00 +14°C° 0 mm 3 mps 739 mmHg 90%
    21:00 +14°C° 0 mm 3 mps 740 mmHg 90%
    22:00 +13°C° 0 mm 3 mps 740 mmHg 89%
    23:00 +13°C° 0 mm 3 mps 740 mmHg 89%

    Pasado mañana, 20 Julio, Sábado

    Tiempo Temperatura Precipitaciones Viento Presión Humedad
    00:00 +13°C° 0 mm 3 mps 740 mmHg 90%
    01:00 +12°C° 0 mm 3 mps 740 mmHg 90%
    02:00 +12°C° 0 mm 3 mps 741 mmHg 91%
    03:00 +12°C° 0 mm 3 mps 741 mmHg 91%
    04:00 +12°C° 0 mm 4 mps 741 mmHg 91%
    05:00 +12°C° 0 mm 4 mps 741 mmHg 91%
    06:00 +14°C° 0 mm 4 mps 742 mmHg 88%
    07:00 +15°C° 0 mm 4 mps 742 mmHg 84%
    08:00 +17°C° 0 mm 4 mps 742 mmHg 80%
    09:00 +19°C° 0 mm 4 mps 742 mmHg 75%
    10:00 +20°C° 0 mm 4 mps 743 mmHg 69%
    11:00 +21°C° 0 mm 5 mps 743 mmHg 64%
    12:00 +22°C° 0 mm 5 mps 743 mmHg 63%
    13:00 +22°C° 0 mm 5 mps 743 mmHg 63%
    14:00 +22°C° 0 mm 5 mps 743 mmHg 62%
    15:00 +22°C° 0 mm 5 mps 744 mmHg 65%
    16:00 +22°C° 0 mm 5 mps 744 mmHg 67%
    17:00 +22°C° 0 mm 4 mps 744 mmHg 70%
    18:00 +20°C° 0.1 mm 4 mps 744 mmHg 75%
    19:00 +18°C° 0.1 mm 3 mps 744 mmHg 81%
    20:00 +17°C° 0.1 mm 2 mps 744 mmHg 87%
    21:00 +16°C° 0 mm 2 mps 744 mmHg 89%
    22:00 +15°C° 0 mm 2 mps 744 mmHg 91%
    23:00 +15°C° 0 mm 2 mps 745 mmHg 92%

    21 Julio, Domingo

    Tiempo Temperatura Precipitaciones Viento Presión Humedad
    00:00 +14°C° 0 mm 2 mps 745 mmHg 92%
    01:00 +14°C° 0 mm 2 mps 745 mmHg 91%
    02:00 +13°C° 0 mm 2 mps 745 mmHg 91%
    03:00 +13°C° 0 mm 2 mps 745 mmHg 91%
    04:00 +13°C° 0 mm 2 mps 745 mmHg 91%
    05:00 +13°C° 0 mm 2 mps 745 mmHg 91%
    06:00 +15°C° 0 mm 2 mps 745 mmHg 85%
    07:00 +17°C° 0 mm 2 mps 745 mmHg 80%
    08:00 +19°C° 0 mm 2 mps 745 mmHg 75%
    09:00 +20°C° 0 mm 2 mps 745 mmHg 71%
    10:00 +23°C° 0 mm 2 mps 746 mmHg 66%
    11:00 +24°C° 0 mm 3 mps 746 mmHg 62%
    12:00 +24°C° 0 mm 3 mps 745 mmHg 60%
    13:00 +25°C° 0 mm 3 mps 745 mmHg 58%
    14:00 +25°C° 0 mm 3 mps 745 mmHg 57%
    15:00 +25°C° 0 mm 2 mps 745 mmHg 59%
    16:00 +25°C° 0 mm 2 mps 745 mmHg 62%
    17:00 +25°C° 0 mm 2 mps 745 mmHg 65%
    18:00 +23°C° 0 mm 2 mps 744 mmHg 71%
    19:00 +21°C° 0 mm 1 mps 744 mmHg 78%
    20:00 +19°C° 0 mm 1 mps 744 mmHg 84%
    21:00 +19°C° 0 mm 1 mps 744 mmHg 86%
    22:00 +18°C° 0 mm 1 mps 744 mmHg 88%
    23:00 +16°C° 0 mm 1 mps 744 mmHg 89%

    22 Julio, Lunes

    Tiempo Temperatura Precipitaciones Viento Presión Humedad
    00:00 +16°C° 0 mm 1 mps 744 mmHg 90%
    01:00 +16°C° 0 mm 1 mps 744 mmHg 91%
    02:00 +15°C° 0 mm 2 mps 743 mmHg 92%
    03:00 +15°C° 0 mm 2 mps 743 mmHg 92%
    04:00 +15°C° 0 mm 2 mps 743 mmHg 92%
    05:00 +15°C° 0 mm 2 mps 742 mmHg 91%
    06:00 +17°C° 0 mm 2 mps 742 mmHg 88%
    07:00 +18°C° 0 mm 2 mps 742 mmHg 84%
    08:00 +20°C° 0 mm 2 mps 742 mmHg 81%
    09:00 +20°C° 0.5 mm 2 mps 742 mmHg 82%
    10:00 +21°C° 0.5 mm 2 mps 742 mmHg 83%
    11:00 +21°C° 0.5 mm 2 mps 742 mmHg 84%
    12:00 +21°C° 0.3 mm 1 mps 742 mmHg 86%
    13:00 +21°C° 0.3 mm 1 mps 742 mmHg 89%
    14:00 +18°C° 0.3 mm 0 mps 742 mmHg 91%
    15:00 +18°C° 0.1 mm 0 mps 742 mmHg 91%
    16:00 +18°C° 0.1 mm 0 mps 742 mmHg 92%
    17:00 +19°C° 0.1 mm 1 mps 742 mmHg 92%
    18:00 +17°C° 0 mm 0 mps 742 mmHg 92%
    19:00 +17°C° 0 mm 0 mps 742 mmHg 91%
    20:00 +16°C° 0 mm 0 mps 742 mmHg 91%
    21:00 +16°C° 0 mm 0 mps 742 mmHg 92%
    22:00 +15°C° 0 mm 0 mps 742 mmHg 92%
    23:00 +15°C° 0 mm 0 mps 742 mmHg 93%

    23 Julio, Martes

    Tiempo Temperatura Precipitaciones Viento Presión Humedad
    00:00 +16°C° 0 mm 1 mps 742 mmHg 93%
    01:00 +15°C° 0 mm 1 mps 742 mmHg 94%
    02:00 +15°C° 0 mm 1 mps 742 mmHg 94%
    03:00 +15°C° 0 mm 1 mps 742 mmHg 95%
    04:00 +15°C° 0 mm 1 mps 743 mmHg 96%
    05:00 +15°C° 0 mm 2 mps 743 mmHg 97%
    06:00 +16°C° 0 mm 2 mps 743 mmHg 92%
    07:00 +18°C° 0 mm 2 mps 743 mmHg 87%
    08:00 +20°C° 0 mm 2 mps 743 mmHg 82%
    09:00 +21°C° 0 mm 2 mps 743 mmHg 74%
    10:00 +22°C° 0 mm 3 mps 743 mmHg 65%
    11:00 +25°C° 0 mm 3 mps 744 mmHg 56%
    12:00 +25°C° 0 mm 3 mps 743 mmHg 55%
    13:00 +25°C° 0 mm 3 mps 743 mmHg 54%
    14:00 +25°C° 0 mm 4 mps 743 mmHg 53%
    15:00 +25°C° 0 mm 4 mps 743 mmHg 56%
    16:00 +23°C° 0 mm 4 mps 743 mmHg 60%
    17:00 +22°C° 0 mm 4 mps 743 mmHg 63%
    18:00 +21°C° 0 mm 3 mps 743 mmHg 67%
    19:00 +19°C° 0 mm 3 mps 743 mmHg 72%
    20:00 +17°C° 0 mm 2 mps 743 mmHg 76%
    21:00 +16°C° 0 mm 2 mps 743 mmHg 78%
    22:00 +15°C° 0 mm 2 mps 743 mmHg 80%
    23:00 +14°C° 0 mm 2 mps 743 mmHg 82%
    Mostrar más